Volver al catálogo

STARLINK-35769

ActivoComunicacionesVLEO
NORAD 66842·PAYLOAD·🇺🇸 United States

Lanzado Dec 2, 2025 desde Vandenberg Space Force Base

Loading…

Próximos Pases (próximas 24 horas)

TLE

ActualizadoSource: CelesTrak SupGP

Época: Sep 15, 2026, 03:25 UTC

1 66842C 25280X   26258.14284722 -.00031007  00000+0 -25978-2 0  2589
2 66842  70.0013 216.6103 0002918 271.6567 251.4400 14.98357634    19

Sigue STARLINK-35769 en tiempo real con AllMySat

Download on the App Store